TimeCST,TemperatureF,Dew PointF,Humidity,Sea Level PressureIn,VisibilityMPH,Wind Direction,Wind SpeedMPH,Gust SpeedMPH,PrecipitationIn,Events,Conditions,WindDirDegrees,DateUTC
12:53 AM,33.1,25.0,72,30.08,10.0,North,11.5,-,N/A,,Clear,10,2013-02-11 06:53:00
1:53 AM,30.0,24.1,79,30.10,10.0,NNE,8.1,-,N/A,,Clear,20,2013-02-11 07:53:00
2:53 AM,32.0,24.1,73,30.11,10.0,NNE,11.5,-,N/A,,Clear,20,2013-02-11 08:53:00
3:53 AM,30.9,24.1,76,30.14,10.0,NNE,6.9,-,N/A,,Clear,20,2013-02-11 09:53:00
4:53 AM,28.9,24.1,82,30.15,10.0,North,10.4,-,N/A,,Clear,10,2013-02-11 10:53:00
5:53 AM,28.9,24.1,82,30.16,10.0,North,10.4,-,N/A,,Clear,10,2013-02-11 11:53:00
6:53 AM,28.9,23.0,78,30.19,10.0,NNE,10.4,-,N/A,,Clear,20,2013-02-11 12:53:00
7:53 AM,28.0,21.9,78,30.22,10.0,NNE,9.2,-,N/A,,Clear,20,2013-02-11 13:53:00
8:53 AM,32.0,23.0,69,30.23,10.0,NNE,9.2,-,N/A,,Clear,20,2013-02-11 14:53:00
9:53 AM,37.0,23.0,57,30.24,10.0,NNE,17.3,-,N/A,,Clear,30,2013-02-11 15:53:00
10:53 AM,41.0,23.0,49,30.23,10.0,NE,16.1,-,N/A,,Clear,50,2013-02-11 16:53:00
11:53 AM,44.1,21.9,42,30.22,10.0,ENE,13.8,-,N/A,,Clear,60,2013-02-11 17:53:00
1:53 PM,46.9,21.9,37,30.15,10.0,NE,10.4,-,N/A,,Clear,50,2013-02-11 19:53:00
2:53 PM,48.0,21.9,36,30.12,10.0,NE,11.5,-,N/A,,Clear,50,2013-02-11 20:53:00
3:53 PM,48.0,21.9,36,30.10,10.0,ENE,9.2,-,N/A,,Clear,70,2013-02-11 21:53:00
4:53 PM,48.0,23.0,37,30.11,10.0,ENE,11.5,-,N/A,,Mostly Cloudy,70,2013-02-11 22:53:00
5:53 PM,46.0,23.0,40,30.11,10.0,East,11.5,-,N/A,,Overcast,80,2013-02-11 23:53:00
6:53 PM,41.0,25.0,53,30.12,10.0,ENE,9.2,-,N/A,,Scattered Clouds,70,2013-02-12 00:53:00
7:53 PM,39.0,25.0,57,30.13,10.0,NE,6.9,-,N/A,,Clear,50,2013-02-12 01:53:00
8:53 PM,37.9,25.0,60,30.14,10.0,ENE,8.1,-,N/A,,Mostly Cloudy,60,2013-02-12 02:53:00
9:53 PM,37.9,28.0,68,30.13,10.0,NNE,6.9,-,N/A,,Overcast,30,2013-02-12 03:53:00
10:53 PM,37.9,25.0,60,30.09,10.0,NE,12.7,-,N/A,,Mostly Cloudy,40,2013-02-12 04:53:00
11:53 PM,39.0,26.1,60,30.09,10.0,NE,6.9,-,N/A,,Overcast,50,2013-02-12 05:53:00